Location: Newark
(30.1997°N, 31.2053°E)
Time: 14:51:35
(UTC+00:00)

Hubble Space Telescope - Visible Passes

Search period start: 27 September 2020 00:00
Search period end: 07 October 2020 00:00
Orbit: 536 x 540 km, 28.5° (Epoch: 26 September)

Date Brightness Start Highest point End Pass type
(mag) Time Alt. Az. Time Alt. Az. Time Alt. Az.
27 Sep 3.9 01:09:06 11° ESE 01:09:06 11° ESE 01:09:21 10° ESE visible
27 Sep 1.1 02:44:26 23° WSW 02:46:50 58° S 02:50:53 10° E visible
28 Sep 0.9 02:34:24 32° WSW 02:36:06 63° S 02:40:11 10° E visible
29 Sep 0.8 02:24:20 46° WSW 02:25:23 67° S 02:29:28 10° E visible
30 Sep 0.7 02:14:16 64° SW 02:14:39 70° S 02:18:45 10° E visible
01 Oct 0.9 02:04:13 67° SSE 02:04:13 67° SSE 02:08:01 10° E visible
02 Oct 1.5 01:54:11 48° ESE 01:54:11 48° ESE 01:57:18 10° E visible
03 Oct 2.3 01:44:11 32° ESE 01:44:11 32° ESE 01:46:34 10° ESE visible
03 Oct 1.8 03:19:43 10° W 03:23:27 33° SSW 03:27:09 10° SE visible
04 Oct 3.0 01:34:14 22° ESE 01:34:14 22° ESE 01:35:48 10° ESE visible
04 Oct 2.0 03:09:34 12° WSW 03:12:39 27° SSW 03:16:11 10° SE visible
05 Oct 3.5 01:24:19 14° ESE 01:24:19 14° ESE 01:25:01 10° ESE visible
05 Oct 2.3 02:59:40 15° WSW 03:01:52 22° SSW 03:05:07 10° SSE visible
06 Oct 2.5 02:49:49 16° SW 02:51:03 18° SSW 02:53:55 10° SSE visible
